Change the Weather History Date:

Friday, January 4, 2013

  Actual Average Record
Temperature  
Mean Temperature 16 °F -  
Max Temperature 28 °F 19 °F 48 °F (1987)
Min Temperature 5 °F -1 °F -26 °F (1968)
Degree Days  
Heating Degree Days 48    
Moisture  
Dew Point 13 °F    
Average Humidity 77    
Maximum Humidity 100    
Minimum Humidity 63    
Precipitation  
Precipitation 0.00 in - - ()
Sea Level Pressure  
Sea Level Pressure 30.07 in    
Wind  
Wind Speed 6 mph (West)    
Max Wind Speed 10 mph    
Max Gust Speed -    
Visibility 10 miles    
Events      
Averages and records for this station are not official NWS values.
T = Trace of Precipitation, MM = Missing Value Source: NWS Daily Summary

Daily Weather History Graph

Daily Weather History Graph

Search for Another Location

Airport or City:

Trip Planner

Search our weather history database for the weather conditions in past years. The results will help you decide how hot, cold, wet, or windy it might be!

Date:

Astronomy

Jan. 04, 2013 Rise Set
Actual Time 8:07 AM CST 4:55 PM CST
Civil Twilight 7:33 AM CST 5:29 PM CST
Nautical Twilight 6:55 AM CST 6:07 PM CST
Astronomical Twilight 6:19 AM CST 6:43 PM CST
Moon No Moon Rise 11:26 AM CST (1/4)
Length of Visible Light 9h 56m
Length of Day
8h 48m
Waning Gibbous, 55% of the Moon is Illuminated
Jan 4
Waning Gibbous
Jan 4
Last Quarter
Jan 11
New
Jan 18
First Quarter
Jan 26
Full

Hourly Weather History & Observations

Time (CST) Temp. Windchill Dew Point Humidity Pressure Visibility Wind Dir Wind Speed Gust Speed Precip Events Conditions
12:15 AM 23.0 °F 18.4 °F 15.8 °F 74% 30.05 in 10.0 mi NNW 3.5 mph - N/A   Clear
12:35 AM 19.4 °F 14.3 °F 15.8 °F 86% 30.03 in 10.0 mi WSW 3.5 mph - N/A   Clear
12:55 AM 19.4 °F 12.8 °F 14.0 °F 80% 30.03 in 10.0 mi West 4.6 mph - N/A   Clear
1:15 AM 21.2 °F 10.9 °F 14.0 °F 74% 30.02 in 10.0 mi WSW 9.2 mph - N/A   Clear
1:34 AM 24.8 °F 17.9 °F 14.0 °F 64% 30.02 in 10.0 mi West 5.8 mph - N/A   Clear
1:55 AM 23.0 °F 14.7 °F 12.2 °F 63% 30.01 in 10.0 mi West 6.9 mph - N/A   Clear
2:35 AM 24.8 °F 14.6 °F 15.8 °F 69% 30.01 in 10.0 mi WSW 10.4 mph - N/A   Clear
2:54 AM 23.0 °F 13.9 °F 14.0 °F 68% 30.02 in 10.0 mi West 8.1 mph - N/A   Clear
3:14 AM 21.2 °F 11.7 °F 14.0 °F 74% 30.03 in 10.0 mi West 8.1 mph - N/A   Clear
3:35 AM 21.2 °F 16.4 °F 12.2 °F 68% 30.03 in 10.0 mi WNW 3.5 mph - N/A   Clear
3:54 AM 21.2 °F 11.7 °F 12.2 °F 68% 30.03 in 10.0 mi West 8.1 mph - N/A   Clear
4:14 AM 21.2 °F 13.6 °F 12.2 °F 68% 30.03 in 10.0 mi West 5.8 mph - N/A   Clear
4:35 AM 19.4 °F 10.4 °F 12.2 °F 74% 30.03 in 10.0 mi West 6.9 mph - N/A   Clear
4:54 AM 19.4 °F 11.5 °F 12.2 °F 74% 30.03 in 10.0 mi West 5.8 mph - N/A   Clear
5:15 AM 19.4 °F 12.8 °F 12.2 °F 74% 30.03 in 10.0 mi West 4.6 mph - N/A   Clear
5:35 AM 19.4 °F 11.5 °F 12.2 °F 74% 30.04 in 10.0 mi West 5.8 mph - N/A   Clear
5:54 AM 19.4 °F 10.4 °F 12.2 °F 74% 30.03 in 10.0 mi West 6.9 mph - N/A   Clear
6:14 AM 19.4 °F 10.4 °F 12.2 °F 74% 30.04 in 10.0 mi West 6.9 mph - N/A   Clear
6:34 AM 19.4 °F 11.5 °F 12.2 °F 74% 30.04 in 10.0 mi West 5.8 mph - N/A   Clear
7:14 AM 17.6 °F 9.3 °F 10.4 °F 73% 30.06 in 10.0 mi West 5.8 mph - N/A   Clear
7:34 AM 17.6 °F 9.3 °F 10.4 °F 73% 30.06 in 10.0 mi West 5.8 mph - N/A   Clear
7:54 AM 17.6 °F 9.3 °F 10.4 °F 73% 30.06 in 10.0 mi West 5.8 mph - N/A   Clear
8:14 AM 17.6 °F 8.2 °F 10.4 °F 73% 30.06 in 10.0 mi West 6.9 mph - N/A   Clear
8:34 AM 19.4 °F 10.4 °F 12.2 °F 74% 30.07 in 10.0 mi West 6.9 mph - N/A   Clear
8:54 AM 19.4 °F 11.5 °F 12.2 °F 74% 30.08 in 10.0 mi West 5.8 mph - N/A   Clear
9:14 AM 19.4 °F 10.4 °F 12.2 °F 74% 30.09 in 10.0 mi West 6.9 mph - N/A   Clear
9:34 AM 21.2 °F 11.7 °F 14.0 °F 74% 30.09 in 10.0 mi West 8.1 mph - N/A   Clear
9:54 AM 23.0 °F 13.1 °F 15.8 °F 74% 30.10 in 10.0 mi West 9.2 mph - N/A   Clear
10:14 AM 24.8 °F 16.1 °F 15.8 °F 69% 30.11 in 10.0 mi West 8.1 mph - N/A   Clear
10:34 AM 24.8 °F 14.6 °F 15.8 °F 69% 30.11 in 10.0 mi West 10.4 mph - N/A   Clear
10:54 AM 24.8 °F 15.3 °F 15.8 °F 69% 30.11 in 10.0 mi WNW 9.2 mph - N/A   Clear
11:15 AM 26.6 °F 18.2 °F 17.6 °F 69% 30.11 in 10.0 mi West 8.1 mph - N/A   Clear
11:35 AM 26.6 °F 18.2 °F 17.6 °F 69% 30.11 in 10.0 mi WNW 8.1 mph - N/A   Clear
11:55 AM 26.6 °F 17.5 °F 17.6 °F 69% 30.11 in 10.0 mi WNW 9.2 mph - N/A   Clear
12:14 PM 26.6 °F 17.5 °F 17.6 °F 69% 30.10 in 10.0 mi WNW 9.2 mph - N/A   Clear
12:34 PM 28.4 °F 19.1 °F 17.6 °F 64% 30.09 in 10.0 mi West 10.4 mph - N/A   Clear
12:54 PM 28.4 °F 19.1 °F 19.4 °F 69% 30.09 in 10.0 mi West 10.4 mph - N/A   Clear
1:14 PM 28.4 °F 19.7 °F 19.4 °F 69% 30.08 in 10.0 mi WNW 9.2 mph - N/A   Clear
1:34 PM 28.4 °F 20.4 °F 19.4 °F 69% 30.09 in 10.0 mi WNW 8.1 mph - N/A   Clear
1:54 PM 28.4 °F 21.2 °F 19.4 °F 69% 30.08 in 10.0 mi NW 6.9 mph - N/A   Clear
2:15 PM 28.4 °F 22.2 °F 19.4 °F 69% 30.09 in 10.0 mi NW 5.8 mph - N/A   Clear
2:34 PM 26.6 °F 18.2 °F 19.4 °F 74% 30.08 in 10.0 mi North 8.1 mph - N/A   Clear
2:54 PM 26.6 °F 21.2 °F 19.4 °F 74% 30.08 in 10.0 mi North 4.6 mph - N/A   Clear
3:15 PM 26.6 °F 20.0 °F 17.6 °F 69% 30.09 in 10.0 mi North 5.8 mph - N/A   Clear
3:34 PM 26.6 °F - 17.6 °F 69% 30.10 in 10.0 mi Calm Calm - N/A   Clear
3:55 PM 26.6 °F - 17.6 °F 69% 30.11 in 10.0 mi Calm Calm - N/A   Clear
4:15 PM 24.8 °F - 17.6 °F 74% 30.11 in 10.0 mi Calm Calm - N/A   Clear
4:54 PM 24.8 °F - 17.6 °F 74% 30.11 in 10.0 mi Calm Calm - N/A   Clear
5:35 PM 21.2 °F - 15.8 °F 80% 30.11 in 10.0 mi Calm Calm - N/A   Clear
5:54 PM 21.2 °F - 15.8 °F 80% 30.10 in 10.0 mi Calm Calm - N/A   Clear
6:15 PM 19.4 °F - 15.8 °F 86% 30.11 in 10.0 mi Calm Calm - N/A   Clear
6:34 PM 17.6 °F - 15.8 °F 93% 30.10 in 10.0 mi Calm Calm - N/A   Clear
6:54 PM 15.8 °F 10.2 °F 12.2 °F 86% 30.10 in 10.0 mi ESE 3.5 mph - N/A   Clear
7:14 PM 14.0 °F 5.1 °F 12.2 °F 93% 30.09 in 10.0 mi SE 5.8 mph - N/A   Clear
7:34 PM 17.6 °F 10.7 °F 15.8 °F 93% 30.09 in 10.0 mi SE 4.6 mph - N/A   Clear
7:54 PM 12.2 °F 2.9 °F 10.4 °F 92% 30.09 in 10.0 mi ESE 5.8 mph - N/A   Clear
8:14 PM 8.6 °F -1.3 °F 6.8 °F 92% 30.08 in 7.0 mi ESE 5.8 mph - N/A   Clear
8:34 PM 10.4 °F 0.8 °F 10.4 °F 100% 30.09 in 7.0 mi SE 5.8 mph - N/A   Clear
8:55 PM 10.4 °F - 8.6 °F 92% 30.09 in 10.0 mi Calm Calm - N/A   Clear
9:14 PM 8.6 °F 2.0 °F 6.8 °F 92% 30.09 in 10.0 mi WSW 3.5 mph - N/A   Clear
9:34 PM 8.6 °F - 6.8 °F 92% 30.08 in 7.0 mi Calm Calm - N/A   Clear
9:54 PM 8.6 °F - 5.0 °F 85% 30.07 in 10.0 mi Calm Calm - N/A   Clear
10:14 PM 5.0 °F -4.1 °F 3.2 °F 92% 30.07 in 7.0 mi ESE 4.6 mph - N/A   Clear
10:35 PM 8.6 °F 0.1 °F 6.8 °F 92% 30.06 in 7.0 mi SE 4.6 mph - N/A   Clear
10:54 PM 8.6 °F 2.0 °F 6.8 °F 92% 30.07 in 7.0 mi SSW 3.5 mph - N/A   Clear
11:15 PM 6.8 °F - 3.2 °F 85% 30.06 in 10.0 mi Calm Calm - N/A   Clear
11:34 PM 10.4 °F - 6.8 °F 85% 30.04 in 3.0 mi Calm Calm - N/A   Clear
11:54 PM 6.8 °F - 5.0 °F 92% 30.04 in 7.0 mi Calm Calm - N/A   Clear